Time,TemperatureF,DewpointF,PressureIn,WindDirection,WindDirectionDegrees,WindSpeedMPH,WindSpeedGustMPH,Humidity,HourlyPrecipIn,Conditions,Clouds,dailyrainin,SoftwareType,DateUTC
2013-10-22 00:00:00,65.1,55.5,30.05,South,190,0.0,0.0,71,0.00,,CLR,0.00,VWS V14.01,2013-10-22 05:00:00,
2013-10-22 00:02:00,64.7,55.5,30.05,South,191,0.0,0.0,72,0.00,,OVC045,0.00,VWS V14.01,2013-10-22 05:02:00,
2013-10-22 00:07:00,64.5,55.3,30.05,ESE,102,0.0,0.0,72,0.00,,OVC045,0.00,VWS V14.01,2013-10-22 05:07:00,
2013-10-22 00:10:00,64.8,55.6,30.05,South,191,0.0,0.0,72,0.00,,CLR,0.00,VWS V14.01,2013-10-22 05:10:00,
2013-10-22 00:12:00,64.3,55.1,30.05,ESE,103,0.0,0.0,72,0.00,,OVC045,0.00,VWS V14.01,2013-10-22 05:12:00,
2013-10-22 00:17:00,64.3,55.1,30.04,ESE,104,0.0,0.0,72,0.00,,OVC045,0.00,VWS V14.01,2013-10-22 05:17:00,
2013-10-22 00:20:00,64.5,55.3,30.05,ESE,102,0.0,0.0,72,0.00,,CLR,0.00,VWS V14.01,2013-10-22 05:20:00,
2013-10-22 00:22:00,64.2,55.0,30.04,South,177,0.0,0.0,72,0.00,,OVC045,0.00,VWS V14.01,2013-10-22 05:22:00,
2013-10-22 00:27:00,64.0,54.8,30.04,South,178,0.0,0.0,72,0.00,,OVC045,0.00,VWS V14.01,2013-10-22 05:27:00,
2013-10-22 00:30:00,64.3,55.1,30.04,ESE,104,0.0,0.0,72,0.00,,CLR,0.00,VWS V14.01,2013-10-22 05:30:00,
2013-10-22 00:32:00,63.8,54.6,30.04,South,179,0.0,0.0,72,0.00,,OVC045,0.00,VWS V14.01,2013-10-22 05:32:00,
2013-10-22 00:37:00,63.7,54.9,30.04,South,179,0.0,0.0,73,0.00,,OVC045,0.00,VWS V14.01,2013-10-22 05:37:00,
2013-10-22 00:40:00,64.0,54.4,30.04,South,178,0.0,0.0,71,0.00,,CLR,0.00,VWS V14.01,2013-10-22 05:40:00,
2013-10-22 00:42:00,63.4,54.6,30.04,South,179,0.0,0.0,73,0.00,,OVC045,0.00,VWS V14.01,2013-10-22 05:42:00,
2013-10-22 00:47:00,63.2,54.8,30.05,South,179,0.0,0.0,74,0.00,,OVC045,0.00,VWS V14.01,2013-10-22 05:47:00,
2013-10-22 00:50:00,63.7,54.9,30.04,South,179,0.0,0.0,73,0.00,,CLR,0.00,VWS V14.01,2013-10-22 05:50:00,
2013-10-22 00:52:00,62.9,54.9,30.05,South,171,0.0,0.0,75,0.00,,OVC045,0.00,VWS V14.01,2013-10-22 05:52:00,
2013-10-22 00:57:00,62.6,54.6,30.05,South,171,0.0,0.0,75,0.00,,OVC045,0.00,VWS V14.01,2013-10-22 05:57:00,
2013-10-22 01:00:00,63.2,54.8,30.05,South,179,0.0,0.0,74,0.00,,CLR,0.00,VWS V14.01,2013-10-22 06:00:00,
2013-10-22 01:02:00,62.4,54.4,30.05,South,171,0.0,0.0,75,0.00,,FEW060,0.00,VWS V14.01,2013-10-22 06:02:00,
2013-10-22 01:07:00,62.2,54.5,30.05,South,171,0.0,0.0,76,0.00,,FEW060,0.00,VWS V14.01,2013-10-22 06:07:00,
2013-10-22 01:10:00,62.7,54.7,30.05,South,171,0.0,0.0,75,0.00,,CLR,0.00,VWS V14.01,2013-10-22 06:10:00,
2013-10-22 01:12:00,61.9,54.3,30.05,South,171,0.0,0.0,76,0.00,,FEW060,0.00,VWS V14.01,2013-10-22 06:12:00,
2013-10-22 01:17:00,61.8,54.5,30.06,South,171,0.0,0.0,77,0.00,,FEW060,0.00,VWS V14.01,2013-10-22 06:17:00,
2013-10-22 01:20:00,62.2,54.5,30.05,South,171,0.0,0.0,76,0.00,,CLR,0.00,VWS V14.01,2013-10-22 06:20:00,
2013-10-22 01:22:00,61.5,54.2,30.06,South,171,0.0,0.0,77,0.00,,FEW060,0.00,VWS V14.01,2013-10-22 06:22:00,
2013-10-22 01:27:00,61.3,54.4,30.06,South,171,0.0,0.0,78,0.00,,FEW060,0.00,VWS V14.01,2013-10-22 06:27:00,
2013-10-22 01:30:00,61.8,54.5,30.06,South,171,0.0,0.0,77,0.00,,CLR,0.00,VWS V14.01,2013-10-22 06:30:00,
2013-10-22 01:32:00,61.1,54.2,30.06,South,171,0.0,0.0,78,0.00,,FEW060,0.00,VWS V14.01,2013-10-22 06:32:00,
2013-10-22 01:37:00,60.8,54.3,30.06,South,171,0.0,0.0,79,0.00,,FEW060,0.00,VWS V14.01,2013-10-22 06:37:00,
2013-10-22 01:40:00,61.3,54.4,30.06,South,171,0.0,0.0,78,0.00,,CLR,0.00,VWS V14.01,2013-10-22 06:40:00,
2013-10-22 01:42:00,60.7,54.2,30.06,South,171,0.0,0.0,79,0.00,,FEW060,0.00,VWS V14.01,2013-10-22 06:42:00,
2013-10-22 01:47:00,60.5,54.3,30.06,South,171,0.0,0.0,80,0.00,,FEW060,0.00,VWS V14.01,2013-10-22 06:47:00,
2013-10-22 01:50:00,61.0,54.5,30.06,South,171,0.0,0.0,79,0.00,,CLR,0.00,VWS V14.01,2013-10-22 06:50:00,
2013-10-22 01:52:00,60.4,54.2,30.06,South,171,0.0,0.0,80,0.00,,FEW060,0.00,VWS V14.01,2013-10-22 06:52:00,
2013-10-22 01:57:00,60.4,54.2,30.06,South,171,0.0,0.0,80,0.00,,FEW060,0.00,VWS V14.01,2013-10-22 06:57:00,
2013-10-22 02:00:00,60.5,54.0,30.06,South,171,0.0,0.0,79,0.00,,CLR,0.00,VWS V14.01,2013-10-22 07:00:00,
2013-10-22 02:02:00,60.2,54.0,30.06,South,171,0.0,0.0,80,0.00,,CLR,0.00,VWS V14.01,2013-10-22 07:02:00,
2013-10-22 02:07:00,60.0,54.2,30.06,South,171,0.0,0.0,81,0.00,,CLR,0.00,VWS V14.01,2013-10-22 07:07:00,
2013-10-22 02:10:00,60.4,54.2,30.06,South,171,0.0,0.0,80,0.00,,CLR,0.00,VWS V14.01,2013-10-22 07:10:00,
2013-10-22 02:12:00,60.0,54.2,30.06,South,171,0.0,0.0,81,0.00,,CLR,0.00,VWS V14.01,2013-10-22 07:12:00,
2013-10-22 02:17:00,59.9,54.1,30.06,South,171,0.0,0.0,81,0.00,,CLR,0.00,VWS V14.01,2013-10-22 07:17:00,
2013-10-22 02:20:00,60.0,54.2,30.06,South,171,0.0,0.0,81,0.00,,CLR,0.00,VWS V14.01,2013-10-22 07:20:00,
2013-10-22 02:22:00,59.7,53.9,30.06,South,171,0.0,0.0,81,0.00,,CLR,0.00,VWS V14.01,2013-10-22 07:22:00,
2013-10-22 02:27:00,59.6,53.8,30.06,South,171,0.0,0.0,81,0.00,,CLR,0.00,VWS V14.01,2013-10-22 07:27:00,
2013-10-22 02:30:00,59.9,54.1,30.06,South,171,0.0,0.0,81,0.00,,CLR,0.00,VWS V14.01,2013-10-22 07:30:00,
2013-10-22 02:32:00,59.6,53.8,30.06,South,171,0.0,0.0,81,0.00,,CLR,0.00,VWS V14.01,2013-10-22 07:32:00,
2013-10-22 02:37:00,59.6,54.1,30.06,South,171,0.0,0.0,82,0.00,,CLR,0.00,VWS V14.01,2013-10-22 07:37:00,
2013-10-22 02:40:00,59.6,54.1,30.06,South,171,0.0,0.0,82,0.00,,CLR,0.00,VWS V14.01,2013-10-22 07:40:00,
2013-10-22 02:42:00,59.4,53.9,30.06,South,171,0.0,0.0,82,0.00,,CLR,0.00,VWS V14.01,2013-10-22 07:42:00,
2013-10-22 02:47:00,59.4,53.9,30.07,South,171,0.0,0.0,82,0.00,,CLR,0.00,VWS V14.01,2013-10-22 07:47:00,
2013-10-22 02:50:00,59.6,54.1,30.06,South,171,0.0,0.0,82,0.00,,CLR,0.00,VWS V14.01,2013-10-22 07:50:00,
2013-10-22 02:52:00,59.4,53.9,30.07,South,171,0.0,0.0,82,0.00,,CLR,0.00,VWS V14.01,2013-10-22 07:52:00,
2013-10-22 02:57:00,59.3,53.8,30.07,South,171,0.0,0.0,82,0.00,,CLR,0.00,VWS V14.01,2013-10-22 07:57:00,
2013-10-22 03:00:00,59.4,53.9,30.07,South,171,0.0,0.0,82,0.00,,CLR,0.00,VWS V14.01,2013-10-22 08:00:00,
2013-10-22 03:02:00,59.3,53.8,30.07,South,171,0.0,0.0,82,0.00,,FEW046,0.00,VWS V14.01,2013-10-22 08:02:00,
2013-10-22 03:07:00,59.3,53.8,30.07,South,173,0.0,0.0,82,0.00,,FEW046,0.00,VWS V14.01,2013-10-22 08:07:00,
2013-10-22 03:10:00,59.3,53.8,30.07,South,171,0.0,0.0,82,0.00,,CLR,0.00,VWS V14.01,2013-10-22 08:10:00,
2013-10-22 03:12:00,59.3,53.8,30.07,South,173,0.0,0.0,82,0.00,,FEW046,0.00,VWS V14.01,2013-10-22 08:12:00,
2013-10-22 03:17:00,59.3,53.8,30.06,South,173,0.0,0.0,82,0.00,,FEW046,0.00,VWS V14.01,2013-10-22 08:17:00,
2013-10-22 03:20:00,59.3,53.8,30.07,South,173,0.0,0.0,82,0.00,,CLR,0.00,VWS V14.01,2013-10-22 08:20:00,
2013-10-22 03:22:00,59.3,53.8,30.06,South,173,0.0,0.0,82,0.00,,FEW046,0.00,VWS V14.01,2013-10-22 08:22:00,
2013-10-22 03:27:00,59.4,53.9,30.06,South,173,0.0,0.0,82,0.00,,FEW046,0.00,VWS V14.01,2013-10-22 08:27:00,
2013-10-22 03:30:00,59.3,53.8,30.06,South,173,0.0,0.0,82,0.00,,CLR,0.00,VWS V14.01,2013-10-22 08:30:00,
2013-10-22 03:32:00,59.4,53.6,30.06,WNW,298,0.0,0.0,81,0.00,,FEW046,0.00,VWS V14.01,2013-10-22 08:32:00,
2013-10-22 03:37:00,59.4,53.9,30.06,WNW,298,0.0,0.0,82,0.00,,FEW046,0.00,VWS V14.01,2013-10-22 08:37:00,
2013-10-22 03:40:00,59.4,53.9,30.06,South,173,0.0,0.0,82,0.00,,CLR,0.00,VWS V14.01,2013-10-22 08:40:00,
2013-10-22 03:42:00,59.4,53.6,30.06,WNW,298,0.0,0.0,81,0.00,,FEW046,0.00,VWS V14.01,2013-10-22 08:42:00,
2013-10-22 03:47:00,59.3,53.5,30.06,WNW,298,0.0,0.0,81,0.00,,FEW046,0.00,VWS V14.01,2013-10-22 08:47:00,
2013-10-22 03:50:00,59.4,53.6,30.06,WNW,298,0.0,0.0,81,0.00,,CLR,0.00,VWS V14.01,2013-10-22 08:50:00,
2013-10-22 03:52:00,59.1,53.3,30.06,WNW,298,0.0,0.0,81,0.00,,FEW046,0.00,VWS V14.01,2013-10-22 08:52:00,
2013-10-22 03:57:00,59.0,53.5,30.06,WNW,298,0.0,0.0,82,0.00,,FEW046,0.00,VWS V14.01,2013-10-22 08:57:00,
2013-10-22 04:00:00,59.3,53.5,30.06,WNW,298,0.0,0.0,81,0.00,,CLR,0.00,VWS V14.01,2013-10-22 09:00:00,
2013-10-22 04:02:00,58.8,53.3,30.06,WNW,298,0.0,0.0,82,0.00,,BKN046,0.00,VWS V14.01,2013-10-22 09:02:00,
2013-10-22 04:07:00,58.8,53.3,30.06,WNW,298,0.0,0.0,82,0.00,,BKN046,0.00,VWS V14.01,2013-10-22 09:07:00,
2013-10-22 04:10:00,59.0,53.2,30.06,WNW,298,0.0,0.0,81,0.00,,CLR,0.00,VWS V14.01,2013-10-22 09:10:00,
2013-10-22 04:12:00,58.7,53.2,30.06,WNW,298,0.0,0.0,82,0.00,,BKN046,0.00,VWS V14.01,2013-10-22 09:12:00,
2013-10-22 04:17:00,58.5,53.4,30.06,WNW,298,0.0,0.0,83,0.00,,BKN046,0.00,VWS V14.01,2013-10-22 09:17:00,
2013-10-22 04:20:00,58.8,53.3,30.06,WNW,298,0.0,0.0,82,0.00,,CLR,0.00,VWS V14.01,2013-10-22 09:20:00,
2013-10-22 04:22:00,58.4,53.3,30.06,WNW,294,0.0,0.0,83,0.00,,BKN046,0.00,VWS V14.01,2013-10-22 09:22:00,
2013-10-22 04:27:00,58.4,53.3,30.06,WNW,294,0.0,0.0,83,0.00,,BKN046,0.00,VWS V14.01,2013-10-22 09:27:00,
2013-10-22 04:30:00,58.5,53.0,30.06,WNW,298,0.0,0.0,82,0.00,,CLR,0.00,VWS V14.01,2013-10-22 09:30:00,
2013-10-22 04:32:00,58.4,53.3,30.06,WNW,294,0.0,0.0,83,0.00,,BKN046,0.00,VWS V14.01,2013-10-22 09:32:00,
2013-10-22 04:37:00,58.2,53.1,30.06,WNW,294,0.0,0.0,83,0.00,,BKN046,0.00,VWS V14.01,2013-10-22 09:37:00,
2013-10-22 04:40:00,58.4,53.3,30.06,WNW,294,0.0,0.0,83,0.00,,CLR,0.00,VWS V14.01,2013-10-22 09:40:00,
2013-10-22 04:42:00,58.1,53.0,30.06,WNW,294,0.0,0.0,83,0.00,,BKN046,0.00,VWS V14.01,2013-10-22 09:42:00,
2013-10-22 04:47:00,58.1,53.0,30.06,WNW,294,0.0,0.0,83,0.00,,BKN046,0.00,VWS V14.01,2013-10-22 09:47:00,
2013-10-22 04:50:00,58.2,53.1,30.06,WNW,294,0.0,0.0,83,0.00,,CLR,0.00,VWS V14.01,2013-10-22 09:50:00,
2013-10-22 04:52:00,57.9,52.8,30.06,WNW,294,0.0,0.0,83,0.00,,BKN046,0.00,VWS V14.01,2013-10-22 09:52:00,
2013-10-22 04:57:00,57.9,52.8,30.06,WNW,294,0.0,0.0,83,0.00,,BKN046,0.00,VWS V14.01,2013-10-22 09:57:00,
2013-10-22 05:00:00,58.1,53.0,30.06,WNW,294,0.0,0.0,83,0.00,,CLR,0.00,VWS V14.01,2013-10-22 10:00:00,
2013-10-22 05:02:00,57.8,52.7,30.06,WNW,294,0.0,0.0,83,0.00,,SCT044,0.00,VWS V14.01,2013-10-22 10:02:00,
2013-10-22 05:07:00,57.6,52.5,30.06,WNW,294,0.0,0.0,83,0.00,,SCT044,0.00,VWS V14.01,2013-10-22 10:07:00,
2013-10-22 05:10:00,57.9,52.8,30.06,WNW,294,0.0,0.0,83,0.00,,CLR,0.00,VWS V14.01,2013-10-22 10:10:00,
2013-10-22 05:12:00,57.6,52.5,30.06,WNW,294,0.0,0.0,83,0.00,,SCT044,0.00,VWS V14.01,2013-10-22 10:12:00,
2013-10-22 05:17:00,57.6,52.5,30.06,WNW,294,0.0,0.0,83,0.00,,SCT044,0.00,VWS V14.01,2013-10-22 10:17:00,
2013-10-22 05:20:00,57.6,52.5,30.06,WNW,294,0.0,0.0,83,0.00,,CLR,0.00,VWS V14.01,2013-10-22 10:20:00,
2013-10-22 05:22:00,57.8,52.7,30.06,WNW,290,0.0,0.0,83,0.00,,SCT044,0.00,VWS V14.01,2013-10-22 10:22:00,
2013-10-22 05:27:00,57.6,52.5,30.06,WNW,290,0.0,0.0,83,0.00,,SCT044,0.00,VWS V14.01,2013-10-22 10:27:00,
2013-10-22 05:30:00,57.6,52.5,30.06,WNW,294,0.0,0.0,83,0.00,,CLR,0.00,VWS V14.01,2013-10-22 10:30:00,
2013-10-22 05:32:00,57.6,52.5,30.07,WNW,290,0.0,0.0,83,0.00,,SCT044,0.00,VWS V14.01,2013-10-22 10:32:00,
2013-10-22 05:37:00,57.6,52.5,30.07,WNW,290,0.0,0.0,83,0.00,,SCT044,0.00,VWS V14.01,2013-10-22 10:37:00,
2013-10-22 05:40:00,57.6,52.5,30.06,WNW,290,0.0,0.0,83,0.00,,CLR,0.00,VWS V14.01,2013-10-22 10:40:00,
2013-10-22 05:42:00,57.5,52.4,30.07,WNW,290,0.0,0.0,83,0.00,,SCT044,0.00,VWS V14.01,2013-10-22 10:42:00,
2013-10-22 05:47:00,57.3,52.2,30.07,WNW,290,0.0,0.0,83,0.00,,SCT044,0.00,VWS V14.01,2013-10-22 10:47:00,
2013-10-22 05:50:00,57.6,52.5,30.07,WNW,290,0.0,0.0,83,0.00,,CLR,0.00,VWS V14.01,2013-10-22 10:50:00,
2013-10-22 05:52:00,57.3,52.2,30.07,East,82,0.0,0.0,83,0.00,,SCT044,0.00,VWS V14.01,2013-10-22 10:52:00,
2013-10-22 05:57:00,57.1,52.0,30.07,ENE,57,0.0,0.0,83,0.00,,SCT044,0.00,VWS V14.01,2013-10-22 10:57:00,
2013-10-22 06:00:00,57.3,52.2,30.07,WNW,290,0.0,0.0,83,0.00,,CLR,0.00,VWS V14.01,2013-10-22 11:00:00,
2013-10-22 06:02:00,57.1,52.0,30.07,ENE,57,0.0,0.0,83,0.00,,OVC048,0.00,VWS V14.01,2013-10-22 11:02:00,
2013-10-22 06:07:00,57.1,52.0,30.07,North,360,0.0,0.0,83,0.00,,OVC048,0.00,VWS V14.01,2013-10-22 11:07:00,
2013-10-22 06:10:00,57.3,52.2,30.07,East,82,0.0,0.0,83,0.00,,CLR,0.00,VWS V14.01,2013-10-22 11:10:00,
2013-10-22 06:12:00,57.1,52.0,30.07,SSW,202,0.0,0.0,83,0.00,,OVC048,0.00,VWS V14.01,2013-10-22 11:12:00,
2013-10-22 06:17:00,57.1,52.0,30.08,SSW,202,0.0,0.0,83,0.00,,OVC048,0.00,VWS V14.01,2013-10-22 11:17:00,
2013-10-22 06:20:00,57.1,52.0,30.07,ENE,57,0.0,0.0,83,0.00,,CLR,0.00,VWS V14.01,2013-10-22 11:20:00,
2013-10-22 06:22:00,57.1,52.0,30.08,SSW,209,0.0,0.0,83,0.00,,OVC048,0.00,VWS V14.01,2013-10-22 11:22:00,
2013-10-22 06:27:00,57.1,52.0,30.08,SSW,209,0.0,0.0,83,0.00,,OVC048,0.00,VWS V14.01,2013-10-22 11:27:00,
2013-10-22 06:30:00,57.1,52.0,30.08,SSW,202,0.0,0.0,83,0.00,,CLR,0.00,VWS V14.01,2013-10-22 11:30:00,
2013-10-22 06:32:00,57.1,51.7,30.09,SSW,208,0.0,0.0,82,0.00,,OVC048,0.00,VWS V14.01,2013-10-22 11:32:00,
2013-10-22 06:37:00,57.1,51.7,30.09,SSW,208,0.0,0.0,82,0.00,,OVC048,0.00,VWS V14.01,2013-10-22 11:37:00,
2013-10-22 06:40:00,57.1,52.0,30.08,SSW,209,0.0,0.0,83,0.00,,CLR,0.00,VWS V14.01,2013-10-22 11:40:00,
2013-10-22 06:42:00,57.0,51.6,30.09,SSW,209,0.0,0.0,82,0.00,,OVC048,0.00,VWS V14.01,2013-10-22 11:42:00,
2013-10-22 06:47:00,57.0,51.9,30.09,SSW,209,0.0,0.0,83,0.00,,OVC048,0.00,VWS V14.01,2013-10-22 11:47:00,
2013-10-22 06:50:00,57.1,51.7,30.09,SSW,208,0.0,0.0,82,0.00,,CLR,0.00,VWS V14.01,2013-10-22 11:50:00,
2013-10-22 06:52:00,57.0,51.9,30.09,SSW,209,0.0,0.0,83,0.00,,OVC048,0.00,VWS V14.01,2013-10-22 11:52:00,
2013-10-22 06:57:00,57.0,51.6,30.09,SE,133,0.0,0.0,82,0.00,,OVC048,0.00,VWS V14.01,2013-10-22 11:57:00,
2013-10-22 07:00:00,57.0,51.6,30.09,SSW,209,0.0,0.0,82,0.00,,CLR,0.00,VWS V14.01,2013-10-22 12:00:00,
2013-10-22 07:02:00,56.8,51.0,30.10,SE,136,0.0,0.0,81,0.00,,FEW055,0.00,VWS V14.01,2013-10-22 12:02:00,
2013-10-22 07:07:00,56.7,50.9,30.10,SE,137,0.0,0.0,81,0.00,,FEW055,0.00,VWS V14.01,2013-10-22 12:07:00,
2013-10-22 07:10:00,57.0,51.6,30.09,SE,130,0.0,0.0,82,0.00,,CLR,0.00,VWS V14.01,2013-10-22 12:10:00,
2013-10-22 07:12:00,56.5,50.8,30.10,SE,138,0.0,0.0,81,0.00,,FEW055,0.00,VWS V14.01,2013-10-22 12:12:00,
2013-10-22 07:17:00,56.4,50.7,30.10,SSE,156,0.0,0.0,81,0.00,,FEW055,0.00,VWS V14.01,2013-10-22 12:17:00,
2013-10-22 07:20:00,56.7,50.9,30.10,SE,136,0.0,0.0,81,0.00,,CLR,0.00,VWS V14.01,2013-10-22 12:20:00,
2013-10-22 07:22:00,56.1,50.4,30.10,SSE,156,0.0,0.0,81,0.00,,FEW055,0.00,VWS V14.01,2013-10-22 12:22:00,
2013-10-22 07:27:00,56.0,50.3,30.10,SSE,155,0.0,0.0,81,0.00,,FEW055,0.00,VWS V14.01,2013-10-22 12:27:00,
2013-10-22 07:30:00,56.4,50.7,30.10,SSE,156,0.0,0.0,81,0.00,,CLR,0.00,VWS V14.01,2013-10-22 12:30:00,
2013-10-22 07:32:00,55.8,50.1,30.11,NE,44,0.0,0.0,81,0.00,,FEW055,0.00,VWS V14.01,2013-10-22 12:32:00,
2013-10-22 07:37:00,55.5,49.8,30.11,NNW,344,0.0,0.0,81,0.00,,FEW055,0.00,VWS V14.01,2013-10-22 12:37:00,
2013-10-22 07:40:00,56.0,50.3,30.10,SSE,155,0.0,0.0,81,0.00,,CLR,0.00,VWS V14.01,2013-10-22 12:40:00,
2013-10-22 07:42:00,55.4,49.7,30.11,NNW,344,0.0,0.0,81,0.00,,FEW055,0.00,VWS V14.01,2013-10-22 12:42:00,
2013-10-22 07:47:00,55.2,49.8,30.11,NNW,344,0.0,0.0,82,0.00,,FEW055,0.00,VWS V14.01,2013-10-22 12:47:00,
2013-10-22 07:50:00,55.7,50.0,30.11,NNW,344,0.0,0.0,81,0.00,,CLR,0.00,VWS V14.01,2013-10-22 12:50:00,
2013-10-22 07:52:00,55.1,49.4,30.11,NNW,341,0.0,0.0,81,0.00,,FEW055,0.00,VWS V14.01,2013-10-22 12:52:00,
2013-10-22 07:57:00,55.1,49.7,30.11,NNW,341,0.0,0.0,82,0.00,,FEW055,0.00,VWS V14.01,2013-10-22 12:57:00,
2013-10-22 08:00:00,55.4,50.0,30.11,NNW,344,0.0,0.0,82,0.00,,CLR,0.00,VWS V14.01,2013-10-22 13:00:00,
2013-10-22 08:02:00,54.9,49.2,30.12,NNW,342,0.0,0.0,81,0.00,,CLR,0.00,VWS V14.01,2013-10-22 13:02:00,
2013-10-22 08:07:00,54.8,49.4,30.12,NNW,342,0.0,0.0,82,0.00,,CLR,0.00,VWS V14.01,2013-10-22 13:07:00,
2013-10-22 08:10:00,55.1,49.7,30.11,NNW,341,0.0,0.0,82,0.00,,CLR,0.00,VWS V14.01,2013-10-22 13:10:00,
2013-10-22 08:12:00,54.8,49.1,30.12,NNW,342,0.0,0.0,81,0.00,,CLR,0.00,VWS V14.01,2013-10-22 13:12:00,
2013-10-22 08:17:00,54.8,48.8,30.12,NNW,342,0.0,0.0,80,0.00,,CLR,0.00,VWS V14.01,2013-10-22 13:17:00,
2013-10-22 08:20:00,54.8,49.1,30.12,NNW,342,0.0,0.0,81,0.00,,CLR,0.00,VWS V14.01,2013-10-22 13:20:00,
2013-10-22 08:22:00,54.8,48.4,30.12,NNW,342,0.0,0.0,79,0.00,,CLR,0.00,VWS V14.01,2013-10-22 13:22:00,
2013-10-22 08:27:00,54.8,48.4,30.12,NNW,342,0.0,0.0,79,0.00,,CLR,0.00,VWS V14.01,2013-10-22 13:27:00,
2013-10-22 08:30:00,54.8,49.1,30.12,NNW,342,0.0,0.0,81,0.00,,CLR,0.00,VWS V14.01,2013-10-22 13:30:00,
2013-10-22 08:32:00,54.9,47.8,30.13,NNW,342,0.0,0.0,77,0.00,,CLR,0.00,VWS V14.01,2013-10-22 13:32:00,
2013-10-22 08:37:00,55.1,47.7,30.13,NNW,342,0.0,0.0,76,0.00,,CLR,0.00,VWS V14.01,2013-10-22 13:37:00,
2013-10-22 08:40:00,54.8,48.4,30.12,NNW,342,0.0,0.0,79,0.00,,CLR,0.00,VWS V14.01,2013-10-22 13:40:00,
2013-10-22 08:42:00,55.1,47.7,30.13,NNW,342,0.0,0.0,76,0.00,,CLR,0.00,VWS V14.01,2013-10-22 13:42:00,
2013-10-22 08:47:00,55.2,47.1,30.14,NNW,342,0.0,0.0,74,0.00,,CLR,0.00,VWS V14.01,2013-10-22 13:47:00,
2013-10-22 08:50:00,54.9,47.5,30.13,NNW,342,0.0,0.0,76,0.00,,CLR,0.00,VWS V14.01,2013-10-22 13:50:00,
2013-10-22 08:53:00,55.4,46.5,30.14,NNW,342,0.0,0.0,72,0.00,,CLR,0.00,VWS V14.01,2013-10-22 13:53:00,
2013-10-22 08:58:00,55.5,46.6,30.14,SSW,209,0.0,0.0,72,0.00,,CLR,0.00,VWS V14.01,2013-10-22 13:58:00,
2013-10-22 09:00:00,55.2,47.4,30.14,NNW,342,0.0,0.0,75,0.00,,CLR,0.00,VWS V14.01,2013-10-22 14:00:00,
2013-10-22 09:03:00,55.8,46.5,30.14,SE,144,0.0,0.0,71,0.00,,CLR,0.00,VWS V14.01,2013-10-22 14:03:00,
2013-10-22 09:08:00,56.0,46.4,30.14,SE,145,0.0,0.0,70,0.00,,CLR,0.00,VWS V14.01,2013-10-22 14:08:00,
2013-10-22 09:10:00,55.5,46.3,30.14,SSW,195,0.0,0.0,71,0.00,,CLR,0.00,VWS V14.01,2013-10-22 14:10:00,
2013-10-22 09:13:00,56.1,45.7,30.14,WNW,288,0.0,0.0,68,0.00,,CLR,0.00,VWS V14.01,2013-10-22 14:13:00,
2013-10-22 09:18:00,56.2,45.8,30.15,North,351,0.0,0.0,68,0.00,,CLR,0.00,VWS V14.01,2013-10-22 14:18:00,
2013-10-22 09:20:00,55.8,46.5,30.14,SE,143,0.0,0.0,71,0.00,,CLR,0.00,VWS V14.01,2013-10-22 14:20:00,
2013-10-22 09:23:00,56.5,45.3,30.15,SE,140,0.0,0.0,66,0.00,,CLR,0.00,VWS V14.01,2013-10-22 14:23:00,
2013-10-22 09:28:00,56.8,45.2,30.15,ESE,117,0.0,0.0,65,0.00,,CLR,0.00,VWS V14.01,2013-10-22 14:28:00,
2013-10-22 09:30:00,56.2,45.4,30.15,WNW,286,0.0,0.0,67,0.00,,CLR,0.00,VWS V14.01,2013-10-22 14:30:00,
2013-10-22 09:33:00,57.1,46.3,30.15,West,281,0.0,0.0,67,0.00,,CLR,0.00,VWS V14.01,2013-10-22 14:33:00,
2013-10-22 09:38:00,57.3,45.7,30.15,WNW,282,0.0,0.0,65,0.00,,CLR,0.00,VWS V14.01,2013-10-22 14:38:00,
2013-10-22 09:40:00,56.7,45.9,30.15,West,275,0.0,0.0,67,0.00,,CLR,0.00,VWS V14.01,2013-10-22 14:40:00,
2013-10-22 09:43:00,57.6,45.5,30.15,WNW,284,0.0,0.0,64,0.00,,CLR,0.00,VWS V14.01,2013-10-22 14:43:00,
2013-10-22 09:48:00,57.9,45.0,30.15,SSW,203,0.0,0.0,62,0.00,,CLR,0.00,VWS V14.01,2013-10-22 14:48:00,
2013-10-22 09:50:00,57.1,45.5,30.15,WNW,286,0.0,0.0,65,0.00,,CLR,0.00,VWS V14.01,2013-10-22 14:50:00,
2013-10-22 09:53:00,58.2,44.8,30.15,South,187,0.0,0.0,61,0.00,,CLR,0.00,VWS V14.01,2013-10-22 14:53:00,
2013-10-22 09:58:00,58.5,45.1,30.15,South,188,0.0,0.0,61,0.00,,CLR,0.00,VWS V14.01,2013-10-22 14:58:00,
2013-10-22 10:00:00,57.8,45.7,30.15,SSW,202,0.0,0.0,64,0.00,,CLR,0.00,VWS V14.01,2013-10-22 15:00:00,
2013-10-22 10:03:00,58.8,45.4,30.15,South,188,0.0,0.0,61,0.00,,CLR,0.00,VWS V14.01,2013-10-22 15:03:00,
2013-10-22 10:08:00,59.3,45.9,30.15,South,188,0.0,0.0,61,0.00,,CLR,0.00,VWS V14.01,2013-10-22 15:08:00,
2013-10-22 10:10:00,58.4,45.5,30.15,South,187,0.0,0.0,62,0.00,,CLR,0.00,VWS V14.01,2013-10-22 15:10:00,
2013-10-22 10:13:00,59.6,44.4,30.15,ESE,104,0.0,0.0,57,0.00,,CLR,0.00,VWS V14.01,2013-10-22 15:13:00,
2013-10-22 10:18:00,60.0,45.2,30.15,ESE,104,0.0,0.0,58,0.00,,CLR,0.00,VWS V14.01,2013-10-22 15:18:00,
2013-10-22 10:20:00,59.0,45.2,30.15,South,188,0.0,0.0,60,0.00,,CLR,0.00,VWS V14.01,2013-10-22 15:20:00,
2013-10-22 10:23:00,60.4,44.2,30.15,West,267,0.0,0.0,55,0.00,,CLR,0.00,VWS V14.01,2013-10-22 15:23:00,
2013-10-22 10:28:00,60.8,44.5,30.15,SSE,159,0.0,0.0,55,0.00,,CLR,0.00,VWS V14.01,2013-10-22 15:28:00,
2013-10-22 10:30:00,59.7,44.9,30.15,ESE,104,0.0,0.0,58,0.00,,CLR,0.00,VWS V14.01,2013-10-22 15:30:00,
2013-10-22 10:33:00,61.1,45.8,30.15,SSE,155,0.0,0.0,57,0.00,,CLR,0.00,VWS V14.01,2013-10-22 15:33:00,
2013-10-22 10:38:00,61.6,46.2,30.15,SSE,155,0.0,0.0,57,0.00,,CLR,0.00,VWS V14.01,2013-10-22 15:38:00,
2013-10-22 10:40:00,60.7,44.9,30.15,SSE,159,0.0,0.0,56,0.00,,CLR,0.00,VWS V14.01,2013-10-22 15:40:00,
2013-10-22 10:43:00,61.9,45.6,30.15,SSE,155,0.0,0.0,55,0.00,,CLR,0.00,VWS V14.01,2013-10-22 15:43:00,
2013-10-22 10:48:00,62.1,43.8,30.15,SE,142,0.0,0.0,51,0.00,,CLR,0.00,VWS V14.01,2013-10-22 15:48:00,
2013-10-22 10:50:00,61.3,46.0,30.15,SSE,155,0.0,0.0,57,0.00,,CLR,0.00,VWS V14.01,2013-10-22 15:50:00,
2013-10-22 10:53:00,62.4,45.1,30.15,SE,142,0.0,0.0,53,0.00,,CLR,0.00,VWS V14.01,2013-10-22 15:53:00,
2013-10-22 10:58:00,62.9,46.5,30.15,SE,142,0.0,0.0,55,0.00,,CLR,0.00,VWS V14.01,2013-10-22 15:58:00,
2013-10-22 11:00:00,61.9,45.6,30.15,SSE,155,0.0,0.0,55,0.00,,CLR,0.00,VWS V14.01,2013-10-22 16:00:00,
2013-10-22 11:03:00,63.2,45.3,30.15,SE,142,0.0,0.0,52,0.00,,CLR,0.00,VWS V14.01,2013-10-22 16:03:00,
2013-10-22 11:08:00,63.8,45.3,30.15,South,170,0.0,0.0,51,0.00,,CLR,0.00,VWS V14.01,2013-10-22 16:08:00,
2013-10-22 11:10:00,62.6,45.2,30.15,SE,142,0.0,0.0,53,0.00,,CLR,0.00,VWS V14.01,2013-10-22 16:10:00,
2013-10-22 11:13:00,64.2,44.1,30.15,SSE,156,0.0,0.0,48,0.00,,CLR,0.00,VWS V14.01,2013-10-22 16:13:00,
2013-10-22 11:18:00,64.5,43.8,30.15,SE,138,0.0,0.0,47,0.00,,CLR,0.00,VWS V14.01,2013-10-22 16:18:00,
2013-10-22 11:20:00,63.5,47.1,30.15,SSW,196,0.0,0.0,55,0.00,,CLR,0.00,VWS V14.01,2013-10-22 16:20:00,
2013-10-22 11:23:00,64.7,44.0,30.15,SSW,193,0.0,0.0,47,0.00,,CLR,0.00,VWS V14.01,2013-10-22 16:23:00,
2013-10-22 11:28:00,65.1,45.5,30.15,SSE,165,0.0,0.0,49,0.00,,CLR,0.00,VWS V14.01,2013-10-22 16:28:00,
2013-10-22 11:30:00,64.3,46.3,30.15,SSE,156,0.0,0.0,52,0.00,,CLR,0.00,VWS V14.01,2013-10-22 16:30:00,
2013-10-22 11:33:00,65.5,44.8,30.15,SSE,148,0.0,0.0,47,0.00,,CLR,0.00,VWS V14.01,2013-10-22 16:33:00,
2013-10-22 11:38:00,65.9,44.0,30.15,SSE,148,0.0,0.0,45,0.00,,CLR,0.00,VWS V14.01,2013-10-22 16:38:00,
2013-10-22 11:40:00,64.8,44.1,30.15,SSE,165,0.0,0.0,47,0.00,,CLR,0.00,VWS V14.01,2013-10-22 16:40:00,
2013-10-22 11:43:00,66.6,45.2,30.15,SE,126,0.0,0.0,46,0.00,,CLR,0.00,VWS V14.01,2013-10-22 16:43:00,
2013-10-22 11:48:00,66.9,44.9,30.15,SSE,157,0.0,0.0,45,0.00,,CLR,0.00,VWS V14.01,2013-10-22 16:48:00,
2013-10-22 11:50:00,65.8,45.6,30.15,SSE,148,0.0,0.0,48,0.00,,CLR,0.00,VWS V14.01,2013-10-22 16:50:00,
2013-10-22 11:53:00,67.6,46.1,30.15,SSE,157,0.0,0.0,46,0.00,,CLR,0.00,VWS V14.01,2013-10-22 16:53:00,
2013-10-22 11:58:00,68.4,43.8,30.15,SSE,151,0.0,0.0,41,0.00,,CLR,0.00,VWS V14.01,2013-10-22 16:58:00,
2013-10-22 12:00:00,66.8,44.2,30.15,SSE,161,0.0,0.0,44,0.00,,CLR,0.00,VWS V14.01,2013-10-22 17:00:00,
2013-10-22 12:03:00,68.9,44.9,30.15,SSE,163,0.0,0.0,42,0.00,,CLR,0.00,VWS V14.01,2013-10-22 17:03:00,
2013-10-22 12:08:00,69.4,41.3,30.15,SW,219,0.0,0.0,36,0.00,,CLR,0.00,VWS V14.01,2013-10-22 17:08:00,
2013-10-22 12:10:00,67.9,45.8,30.15,SSE,149,0.0,0.0,45,0.00,,CLR,0.00,VWS V14.01,2013-10-22 17:10:00,
2013-10-22 12:13:00,70.3,44.2,30.15,SW,219,0.0,0.0,39,0.00,,CLR,0.00,VWS V14.01,2013-10-22 17:13:00,
2013-10-22 12:18:00,71.0,45.5,30.14,SSE,157,0.0,0.0,40,0.00,,CLR,0.00,VWS V14.01,2013-10-22 17:18:00,
2013-10-22 12:20:00,69.3,43.3,30.15,South,169,0.0,0.0,39,0.00,,CLR,0.00,VWS V14.01,2013-10-22 17:20:00,
2013-10-22 12:23:00,71.3,41.5,30.14,SSE,157,0.0,0.0,34,0.00,,CLR,0.00,VWS V14.01,2013-10-22 17:23:00,
2013-10-22 12:28:00,71.8,42.0,30.14,WSW,250,0.0,0.0,34,0.00,,CLR,0.00,VWS V14.01,2013-10-22 17:28:00,
2013-10-22 12:30:00,70.6,42.4,30.14,ESE,123,0.0,0.0,36,0.00,,CLR,0.00,VWS V14.01,2013-10-22 17:30:00,
2013-10-22 12:33:00,72.2,43.1,30.14,ESE,120,0.0,0.0,35,0.00,,CLR,0.00,VWS V14.01,2013-10-22 17:33:00,
2013-10-22 12:38:00,72.5,43.3,30.14,NE,35,0.0,0.0,35,0.00,,CLR,0.00,VWS V14.01,2013-10-22 17:38:00,
2013-10-22 12:40:00,71.6,44.7,30.14,WNW,286,0.0,0.0,38,0.00,,CLR,0.00,VWS V14.01,2013-10-22 17:40:00,
2013-10-22 12:43:00,72.7,40.3,30.14,SE,136,0.0,0.0,31,0.00,,CLR,0.00,VWS V14.01,2013-10-22 17:43:00,
2013-10-22 12:48:00,73.0,43.0,30.14,West,261,0.0,0.0,34,0.00,,CLR,0.00,VWS V14.01,2013-10-22 17:48:00,
2013-10-22 12:50:00,72.3,43.9,30.14,ESE,120,0.0,0.0,36,0.00,,CLR,0.00,VWS V14.01,2013-10-22 17:50:00,
2013-10-22 12:53:00,73.4,46.3,30.14,SE,144,0.0,0.0,38,0.00,,CLR,0.00,VWS V14.01,2013-10-22 17:53:00,
2013-10-22 12:58:00,73.7,41.2,30.14,SSE,149,0.0,0.0,31,0.00,,CLR,0.00,VWS V14.01,2013-10-22 17:58:00,
2013-10-22 13:00:00,72.8,42.0,30.14,SE,126,0.0,0.0,33,0.00,,CLR,0.00,VWS V14.01,2013-10-22 18:00:00,
2013-10-22 13:03:00,73.9,40.5,30.14,South,173,0.0,0.0,30,0.00,,CLR,0.00,VWS V14.01,2013-10-22 18:03:00,
2013-10-22 13:08:00,73.9,44.5,30.14,SSE,148,0.0,0.0,35,0.00,,CLR,0.00,VWS V14.01,2013-10-22 18:08:00,
2013-10-22 13:10:00,73.5,41.9,30.14,SSE,149,0.0,0.0,32,0.00,,CLR,0.00,VWS V14.01,2013-10-22 18:10:00,
2013-10-22 13:13:00,73.7,42.0,30.14,ESE,117,0.0,0.0,32,0.00,,CLR,0.00,VWS V14.01,2013-10-22 18:13:00,
2013-10-22 13:18:00,73.7,39.5,30.13,SSE,158,0.0,0.0,29,0.00,,CLR,0.00,VWS V14.01,2013-10-22 18:18:00,
2013-10-22 13:20:00,73.9,42.2,30.14,South,170,0.0,0.0,32,0.00,,CLR,0.00,VWS V14.01,2013-10-22 18:20:00,
2013-10-22 13:23:00,73.7,41.2,30.13,North,10,0.0,0.0,31,0.00,,CLR,0.00,VWS V14.01,2013-10-22 18:23:00,
2013-10-22 13:28:00,73.7,41.2,30.13,SE,146,0.0,0.0,31,0.00,,CLR,0.00,VWS V14.01,2013-10-22 18:28:00,
2013-10-22 13:30:00,73.7,42.0,30.13,SSW,207,0.0,0.0,32,0.00,,CLR,0.00,VWS V14.01,2013-10-22 18:30:00,
2013-10-22 13:33:00,74.1,42.4,30.12,SE,143,0.0,0.0,32,0.00,,CLR,0.00,VWS V14.01,2013-10-22 18:33:00,
2013-10-22 13:38:00,74.4,39.2,30.12,WSW,244,0.0,0.0,28,0.00,,CLR,0.00,VWS V14.01,2013-10-22 18:38:00,
2013-10-22 13:40:00,73.7,43.6,30.13,ESE,119,0.0,0.0,34,0.00,,CLR,0.00,VWS V14.01,2013-10-22 18:40:00,
2013-10-22 13:43:00,74.4,40.1,30.12,WNW,291,0.0,0.0,29,0.00,,CLR,0.00,VWS V14.01,2013-10-22 18:43:00,
2013-10-22 13:49:00,74.4,42.7,30.12,NNW,344,0.0,0.0,32,0.00,,CLR,0.00,VWS V14.01,2013-10-22 18:49:00,
2013-10-22 13:50:00,74.2,39.9,30.12,SE,126,0.0,0.0,29,0.00,,CLR,0.00,VWS V14.01,2013-10-22 18:50:00,
2013-10-22 13:54:00,74.8,40.5,30.12,NNW,345,0.0,0.0,29,0.00,,CLR,0.00,VWS V14.01,2013-10-22 18:54:00,
2013-10-22 13:59:00,75.3,40.9,30.12,NNW,345,0.0,0.0,29,0.00,,CLR,0.00,VWS V14.01,2013-10-22 18:59:00,
2013-10-22 14:00:00,74.4,41.0,30.12,NNW,344,0.0,0.0,30,0.00,,CLR,0.00,VWS V14.01,2013-10-22 19:00:00,
2013-10-22 14:04:00,75.5,41.9,30.11,WNW,286,0.0,0.0,30,0.00,,CLR,0.00,VWS V14.01,2013-10-22 19:04:00,
2013-10-22 14:09:00,75.3,38.1,30.11,SSE,150,0.0,0.0,26,0.00,,CLR,0.00,VWS V14.01,2013-10-22 19:09:00,
2013-10-22 14:10:00,74.9,43.1,30.12,NNW,345,0.0,0.0,32,0.00,,CLR,0.00,VWS V14.01,2013-10-22 19:10:00,
2013-10-22 14:14:00,75.8,39.5,30.11,SSE,149,0.0,0.0,27,0.00,,CLR,0.00,VWS V14.01,2013-10-22 19:14:00,
2013-10-22 14:19:00,76.0,42.4,30.10,SSE,154,0.0,0.0,30,0.00,,CLR,0.00,VWS V14.01,2013-10-22 19:19:00,
2013-10-22 14:20:00,75.5,40.2,30.11,ESE,109,0.0,0.0,28,0.00,,CLR,0.00,VWS V14.01,2013-10-22 19:20:00,
2013-10-22 14:24:00,76.0,43.2,30.10,South,173,0.0,0.0,31,0.00,,CLR,0.00,VWS V14.01,2013-10-22 19:24:00,
2013-10-22 14:29:00,76.2,43.4,30.10,South,173,0.0,0.0,31,0.00,,CLR,0.00,VWS V14.01,2013-10-22 19:29:00,
2013-10-22 14:30:00,75.8,40.4,30.10,SSE,150,0.0,0.0,28,0.00,,CLR,0.00,VWS V14.01,2013-10-22 19:30:00,
2013-10-22 14:34:00,76.0,41.5,30.09,South,175,0.0,0.0,29,0.00,,CLR,0.00,VWS V14.01,2013-10-22 19:34:00,
2013-10-22 14:39:00,76.5,45.3,30.09,South,175,0.0,0.0,33,0.00,,CLR,0.00,VWS V14.01,2013-10-22 19:39:00,
2013-10-22 14:40:00,76.0,39.6,30.10,South,173,0.0,0.0,27,0.00,,CLR,0.00,VWS V14.01,2013-10-22 19:40:00,
2013-10-22 14:44:00,77.1,45.0,30.09,SE,144,0.0,0.0,32,0.00,,CLR,0.00,VWS V14.01,2013-10-22 19:44:00,
2013-10-22 14:49:00,77.1,40.6,30.09,South,189,0.0,0.0,27,0.00,,CLR,0.00,VWS V14.01,2013-10-22 19:49:00,
2013-10-22 14:50:00,76.2,42.5,30.09,South,175,0.0,0.0,30,0.00,,CLR,0.00,VWS V14.01,2013-10-22 19:50:00,
2013-10-22 14:54:00,76.9,40.4,30.09,SSW,192,0.0,0.0,27,0.00,,CLR,0.00,VWS V14.01,2013-10-22 19:54:00,
2013-10-22 14:59:00,77.1,37.6,30.09,SSW,192,0.0,0.0,24,0.00,,CLR,0.00,VWS V14.01,2013-10-22 19:59:00,
2013-10-22 15:00:00,77.1,40.6,30.09,SE,144,0.0,0.0,27,0.00,,CLR,0.00,VWS V14.01,2013-10-22 20:00:00,
2013-10-22 15:04:00,77.4,46.1,30.09,SSW,192,0.0,0.0,33,0.00,,CLR,0.00,VWS V14.01,2013-10-22 20:04:00,
2013-10-22 15:09:00,77.4,42.7,30.09,SSE,168,0.0,0.0,29,0.00,,CLR,0.00,VWS V14.01,2013-10-22 20:09:00,
2013-10-22 15:10:00,76.9,38.4,30.09,SSW,192,0.0,0.0,25,0.00,,CLR,0.00,VWS V14.01,2013-10-22 20:10:00,
2013-10-22 15:14:00,77.2,43.4,30.09,SE,141,0.0,0.0,30,0.00,,CLR,0.00,VWS V14.01,2013-10-22 20:14:00,
2013-10-22 15:19:00,77.4,40.8,30.09,SSW,202,0.0,0.0,27,0.00,,CLR,0.00,VWS V14.01,2013-10-22 20:19:00,
2013-10-22 15:20:00,77.4,43.6,30.09,SSE,168,0.0,0.0,30,0.00,,CLR,0.00,VWS V14.01,2013-10-22 20:20:00,
2013-10-22 15:24:00,77.6,45.4,30.09,SSW,202,0.0,0.0,32,0.00,,CLR,0.00,VWS V14.01,2013-10-22 20:24:00,
2013-10-22 15:29:00,77.6,42.0,30.09,SSW,200,0.0,0.0,28,0.00,,CLR,0.00,VWS V14.01,2013-10-22 20:29:00,
2013-10-22 15:30:00,77.2,40.7,30.09,SE,146,0.0,0.0,27,0.00,,CLR,0.00,VWS V14.01,2013-10-22 20:30:00,
2013-10-22 15:34:00,77.4,39.9,30.08,SSW,200,0.0,0.0,26,0.00,,CLR,0.00,VWS V14.01,2013-10-22 20:34:00,
2013-10-22 15:39:00,77.4,39.9,30.08,West,277,0.0,0.0,26,0.00,,CLR,0.00,VWS V14.01,2013-10-22 20:39:00,
2013-10-22 15:40:00,77.8,46.4,30.09,SSW,200,0.0,0.0,33,0.00,,CLR,0.00,VWS V14.01,2013-10-22 20:40:00,
2013-10-22 15:44:00,77.2,38.7,30.08,West,273,0.0,0.0,25,0.00,,CLR,0.00,VWS V14.01,2013-10-22 20:44:00,
2013-10-22 15:49:00,77.4,44.4,30.08,West,273,0.0,0.0,31,0.00,,CLR,0.00,VWS V14.01,2013-10-22 20:49:00,
2013-10-22 15:50:00,77.4,42.7,30.08,SSW,200,0.0,0.0,29,0.00,,CLR,0.00,VWS V14.01,2013-10-22 20:50:00,
2013-10-22 15:54:00,77.4,37.8,30.08,North,350,0.0,0.0,24,0.00,,CLR,0.00,VWS V14.01,2013-10-22 20:54:00,
2013-10-22 15:59:00,77.1,38.6,30.08,North,350,0.0,0.0,25,0.00,,CLR,0.00,VWS V14.01,2013-10-22 20:59:00,
2013-10-22 16:00:00,77.2,41.6,30.08,West,273,0.0,0.0,28,0.00,,CLR,0.00,VWS V14.01,2013-10-22 21:00:00,
2013-10-22 16:04:00,76.7,40.2,30.08,North,350,0.0,0.0,27,0.00,,CLR,0.00,VWS V14.01,2013-10-22 21:04:00,
2013-10-22 16:09:00,76.5,38.1,30.08,North,350,0.0,0.0,25,0.00,,CLR,0.00,VWS V14.01,2013-10-22 21:09:00,
2013-10-22 16:10:00,77.2,39.7,30.08,North,350,0.0,0.0,26,0.00,,CLR,0.00,VWS V14.01,2013-10-22 21:10:00,
2013-10-22 16:14:00,76.2,39.8,30.08,North,350,0.0,0.0,27,0.00,,CLR,0.00,VWS V14.01,2013-10-22 21:14:00,
2013-10-22 16:19:00,75.6,39.3,30.08,North,350,0.0,0.0,27,0.00,,CLR,0.00,VWS V14.01,2013-10-22 21:19:00,
2013-10-22 16:20:00,76.7,37.2,30.08,North,350,0.0,0.0,24,0.00,,CLR,0.00,VWS V14.01,2013-10-22 21:20:00,
2013-10-22 16:24:00,75.1,36.9,30.08,North,350,0.0,0.0,25,0.00,,CLR,0.00,VWS V14.01,2013-10-22 21:24:00,
2013-10-22 16:29:00,74.4,38.3,30.08,North,350,0.0,0.0,27,0.00,,CLR,0.00,VWS V14.01,2013-10-22 21:29:00,
2013-10-22 16:30:00,76.0,41.5,30.08,North,350,0.0,0.0,29,0.00,,CLR,0.00,VWS V14.01,2013-10-22 21:30:00,
2013-10-22 16:34:00,73.7,34.7,30.07,North,350,0.0,0.0,24,0.00,,CLR,0.00,VWS V14.01,2013-10-22 21:34:00,
2013-10-22 16:39:00,73.2,39.1,30.07,North,350,0.0,0.0,29,0.00,,CLR,0.00,VWS V14.01,2013-10-22 21:39:00,
2013-10-22 16:40:00,74.8,35.6,30.08,North,350,0.0,0.0,24,0.00,,CLR,0.00,VWS V14.01,2013-10-22 21:40:00,
2013-10-22 16:44:00,72.7,42.0,30.07,North,350,0.0,0.0,33,0.00,,CLR,0.00,VWS V14.01,2013-10-22 21:44:00,
2013-10-22 16:49:00,72.3,40.0,30.07,North,350,0.0,0.0,31,0.00,,CLR,0.00,VWS V14.01,2013-10-22 21:49:00,
2013-10-22 16:50:00,73.5,39.3,30.07,North,350,0.0,0.0,29,0.00,,CLR,0.00,VWS V14.01,2013-10-22 21:50:00,
2013-10-22 16:54:00,72.2,39.9,30.07,North,350,0.0,0.0,31,0.00,,CLR,0.00,VWS V14.01,2013-10-22 21:54:00,
2013-10-22 16:59:00,72.0,40.6,30.07,North,350,0.0,0.0,32,0.00,,CLR,0.00,VWS V14.01,2013-10-22 21:59:00,
2013-10-22 17:00:00,72.7,42.7,30.07,North,350,0.0,0.0,34,0.00,,CLR,0.00,VWS V14.01,2013-10-22 22:00:00,
2013-10-22 17:04:00,71.6,39.4,30.07,North,350,0.0,0.0,31,0.00,,CLR,0.00,VWS V14.01,2013-10-22 22:04:00,
2013-10-22 17:09:00,71.1,38.1,30.07,North,350,0.0,0.0,30,0.00,,CLR,0.00,VWS V14.01,2013-10-22 22:09:00,
2013-10-22 17:10:00,72.0,36.2,30.07,North,350,0.0,0.0,27,0.00,,CLR,0.00,VWS V14.01,2013-10-22 22:10:00,
2013-10-22 17:14:00,70.8,42.5,30.07,North,350,0.0,0.0,36,0.00,,CLR,0.00,VWS V14.01,2013-10-22 22:14:00,
2013-10-22 17:19:00,70.3,42.8,30.07,North,350,0.0,0.0,37,0.00,,CLR,0.00,VWS V14.01,2013-10-22 22:19:00,
2013-10-22 17:20:00,71.5,40.9,30.07,North,350,0.0,0.0,33,0.00,,CLR,0.00,VWS V14.01,2013-10-22 22:20:00,
2013-10-22 17:24:00,69.9,41.0,30.07,North,350,0.0,0.0,35,0.00,,CLR,0.00,VWS V14.01,2013-10-22 22:24:00,
2013-10-22 17:29:00,69.8,41.7,30.07,North,350,0.0,0.0,36,0.00,,CLR,0.00,VWS V14.01,2013-10-22 22:29:00,
2013-10-22 17:30:00,70.6,43.1,30.07,North,350,0.0,0.0,37,0.00,,CLR,0.00,VWS V14.01,2013-10-22 22:30:00,
2013-10-22 17:34:00,69.4,41.3,30.07,North,350,0.0,0.0,36,0.00,,CLR,0.00,VWS V14.01,2013-10-22 22:34:00,
2013-10-22 17:39:00,69.3,42.6,30.07,North,350,0.0,0.0,38,0.00,,CLR,0.00,VWS V14.01,2013-10-22 22:39:00,
2013-10-22 17:40:00,69.9,38.7,30.07,North,350,0.0,0.0,32,0.00,,CLR,0.00,VWS V14.01,2013-10-22 22:40:00,
2013-10-22 17:44:00,68.9,39.4,30.07,North,350,0.0,0.0,34,0.00,,CLR,0.00,VWS V14.01,2013-10-22 22:44:00,
2013-10-22 17:49:00,68.9,40.2,30.07,North,350,0.0,0.0,35,0.00,,CLR,0.00,VWS V14.01,2013-10-22 22:49:00,
2013-10-22 17:50:00,69.4,42.0,30.07,North,350,0.0,0.0,37,0.00,,CLR,0.00,VWS V14.01,2013-10-22 22:50:00,
2013-10-22 17:54:00,68.8,42.2,30.07,North,350,0.0,0.0,38,0.00,,CLR,0.00,VWS V14.01,2013-10-22 22:54:00,
2013-10-22 17:59:00,68.4,42.5,30.07,North,350,0.0,0.0,39,0.00,,CLR,0.00,VWS V14.01,2013-10-22 22:59:00,
2013-10-22 18:00:00,68.9,40.2,30.07,North,350,0.0,0.0,35,0.00,,CLR,0.00,VWS V14.01,2013-10-22 23:00:00,
2013-10-22 18:04:00,68.1,41.6,30.07,North,350,0.0,0.0,38,0.00,,CLR,0.00,VWS V14.01,2013-10-22 23:04:00,
2013-10-22 18:09:00,67.8,42.0,30.07,North,350,0.0,0.0,39,0.00,,CLR,0.00,VWS V14.01,2013-10-22 23:09:00,
2013-10-22 18:10:00,68.6,42.0,30.07,North,350,0.0,0.0,38,0.00,,CLR,0.00,VWS V14.01,2013-10-22 23:10:00,
2013-10-22 18:14:00,67.4,43.5,30.07,North,350,0.0,0.0,42,0.00,,CLR,0.00,VWS V14.01,2013-10-22 23:14:00,
2013-10-22 18:19:00,66.9,44.9,30.07,North,350,0.0,0.0,45,0.00,,CLR,0.00,VWS V14.01,2013-10-22 23:19:00,
2013-10-22 18:20:00,67.9,42.1,30.07,North,350,0.0,0.0,39,0.00,,CLR,0.00,VWS V14.01,2013-10-22 23:20:00,
2013-10-22 18:24:00,66.4,43.8,30.07,North,350,0.0,0.0,44,0.00,,CLR,0.00,VWS V14.01,2013-10-22 23:24:00,
2013-10-22 18:29:00,66.1,44.7,30.07,North,350,0.0,0.0,46,0.00,,CLR,0.00,VWS V14.01,2013-10-22 23:29:00,
2013-10-22 18:30:00,67.3,45.2,30.07,North,350,0.0,0.0,45,0.00,,CLR,0.00,VWS V14.01,2013-10-22 23:30:00,
2013-10-22 18:34:00,65.6,44.8,30.08,North,350,0.0,0.0,47,0.00,,CLR,0.00,VWS V14.01,2013-10-22 23:34:00,
2013-10-22 18:39:00,65.1,44.4,30.08,North,350,0.0,0.0,47,0.00,,CLR,0.00,VWS V14.01,2013-10-22 23:39:00,
2013-10-22 18:40:00,66.3,43.8,30.07,North,350,0.0,0.0,44,0.00,,CLR,0.00,VWS V14.01,2013-10-22 23:40:00,
2013-10-22 18:44:00,64.8,45.2,30.08,North,350,0.0,0.0,49,0.00,,CLR,0.00,VWS V14.01,2013-10-22 23:44:00,
2013-10-22 18:49:00,64.3,45.3,30.08,North,350,0.0,0.0,50,0.00,,CLR,0.00,VWS V14.01,2013-10-22 23:49:00,
2013-10-22 18:50:00,65.5,44.8,30.08,North,350,0.0,0.0,47,0.00,,CLR,0.00,VWS V14.01,2013-10-22 23:50:00,
2013-10-22 18:54:00,64.0,45.5,30.08,North,350,0.0,0.0,51,0.00,,CLR,0.00,VWS V14.01,2013-10-22 23:54:00,
2013-10-22 18:59:00,63.5,46.1,30.08,North,350,0.0,0.0,53,0.00,,CLR,0.00,VWS V14.01,2013-10-22 23:59:00,
2013-10-22 19:00:00,64.7,45.1,30.08,North,350,0.0,0.0,49,0.00,,CLR,0.00,VWS V14.01,2013-10-23 00:00:00,
2013-10-22 19:04:00,63.0,45.6,30.08,North,350,0.0,0.0,53,0.00,,CLR,0.00,VWS V14.01,2013-10-23 00:04:00,
2013-10-22 19:09:00,62.6,46.2,30.08,North,350,0.0,0.0,55,0.00,,CLR,0.00,VWS V14.01,2013-10-23 00:09:00,
2013-10-22 19:10:00,63.8,45.3,30.08,North,350,0.0,0.0,51,0.00,,CLR,0.00,VWS V14.01,2013-10-23 00:10:00,
2013-10-22 19:14:00,62.1,47.2,30.08,North,350,0.0,0.0,58,0.00,,CLR,0.00,VWS V14.01,2013-10-23 00:14:00,
2013-10-22 19:19:00,61.5,47.5,30.09,North,350,0.0,0.0,60,0.00,,CLR,0.00,VWS V14.01,2013-10-23 00:19:00,
2013-10-22 19:20:00,62.9,46.0,30.08,North,350,0.0,0.0,54,0.00,,CLR,0.00,VWS V14.01,2013-10-23 00:20:00,
2013-10-22 19:24:00,60.8,47.7,30.09,North,350,0.0,0.0,62,0.00,,CLR,0.00,VWS V14.01,2013-10-23 00:24:00,
2013-10-22 19:29:00,60.4,48.2,30.09,North,350,0.0,0.0,64,0.00,,CLR,0.00,VWS V14.01,2013-10-23 00:29:00,
2013-10-22 19:30:00,61.9,47.9,30.09,North,350,0.0,0.0,60,0.00,,CLR,0.00,VWS V14.01,2013-10-23 00:30:00,
2013-10-22 19:34:00,59.7,47.5,30.09,North,350,0.0,0.0,64,0.00,,CLR,0.00,VWS V14.01,2013-10-23 00:34:00,
2013-10-22 19:39:00,59.3,46.7,30.09,North,350,0.0,0.0,63,0.00,,CLR,0.00,VWS V14.01,2013-10-23 00:39:00,
2013-10-22 19:40:00,60.7,48.0,30.09,North,350,0.0,0.0,63,0.00,,CLR,0.00,VWS V14.01,2013-10-23 00:40:00,
2013-10-22 19:44:00,59.0,46.8,30.09,North,350,0.0,0.0,64,0.00,,CLR,0.00,VWS V14.01,2013-10-23 00:44:00,
2013-10-22 19:49:00,58.7,47.4,30.09,North,350,0.0,0.0,66,0.00,,CLR,0.00,VWS V14.01,2013-10-23 00:49:00,
2013-10-22 19:50:00,59.6,47.4,30.09,North,350,0.0,0.0,64,0.00,,CLR,0.00,VWS V14.01,2013-10-23 00:50:00,
2013-10-22 19:54:00,58.2,47.7,30.09,North,350,0.0,0.0,68,0.00,,CLR,0.00,VWS V14.01,2013-10-23 00:54:00,
2013-10-22 19:59:00,57.8,47.7,30.09,North,350,0.0,0.0,69,0.00,,CLR,0.00,VWS V14.01,2013-10-23 00:59:00,
2013-10-22 20:00:00,58.8,46.7,30.09,North,350,0.0,0.0,64,0.00,,CLR,0.00,VWS V14.01,2013-10-23 01:00:00,
2013-10-22 20:04:00,57.3,47.2,30.09,North,350,0.0,0.0,69,0.00,,CLR,0.00,VWS V14.01,2013-10-23 01:04:00,
2013-10-22 20:09:00,57.0,46.6,30.09,North,350,0.0,0.0,68,0.00,,CLR,0.00,VWS V14.01,2013-10-23 01:09:00,
2013-10-22 20:10:00,58.1,47.6,30.09,North,350,0.0,0.0,68,0.00,,CLR,0.00,VWS V14.01,2013-10-23 01:10:00,
2013-10-22 20:14:00,56.7,47.0,30.09,North,350,0.0,0.0,70,0.00,,CLR,0.00,VWS V14.01,2013-10-23 01:14:00,
2013-10-22 20:19:00,56.4,47.9,30.10,North,350,0.0,0.0,73,0.00,,CLR,0.00,VWS V14.01,2013-10-23 01:19:00,
2013-10-22 20:20:00,57.3,47.2,30.09,North,350,0.0,0.0,69,0.00,,CLR,0.00,VWS V14.01,2013-10-23 01:20:00,
2013-10-22 20:24:00,56.2,48.0,30.10,North,350,0.0,0.0,74,0.00,,CLR,0.00,VWS V14.01,2013-10-23 01:24:00,
2013-10-22 20:29:00,56.1,48.3,30.10,North,350,0.0,0.0,75,0.00,,CLR,0.00,VWS V14.01,2013-10-23 01:29:00,
2013-10-22 20:30:00,56.5,47.2,30.10,North,350,0.0,0.0,71,0.00,,CLR,0.00,VWS V14.01,2013-10-23 01:30:00,
2013-10-22 20:34:00,55.8,48.0,30.10,North,350,0.0,0.0,75,0.00,,CLR,0.00,VWS V14.01,2013-10-23 01:34:00,
2013-10-22 20:39:00,55.7,48.3,30.10,North,350,0.0,0.0,76,0.00,,CLR,0.00,VWS V14.01,2013-10-23 01:39:00,
2013-10-22 20:40:00,56.2,48.0,30.10,North,350,0.0,0.0,74,0.00,,CLR,0.00,VWS V14.01,2013-10-23 01:40:00,
2013-10-22 20:44:00,55.5,48.1,30.10,North,350,0.0,0.0,76,0.00,,CLR,0.00,VWS V14.01,2013-10-23 01:44:00,
2013-10-22 20:49:00,55.2,48.1,30.10,North,350,0.0,0.0,77,0.00,,CLR,0.00,VWS V14.01,2013-10-23 01:49:00,
2013-10-22 20:50:00,55.8,48.4,30.10,North,350,0.0,0.0,76,0.00,,CLR,0.00,VWS V14.01,2013-10-23 01:50:00,
2013-10-22 20:54:00,55.1,48.4,30.10,North,350,0.0,0.0,78,0.00,,CLR,0.00,VWS V14.01,2013-10-23 01:54:00,
2013-10-22 20:59:00,54.9,48.5,30.10,North,350,0.0,0.0,79,0.00,,CLR,0.00,VWS V14.01,2013-10-23 01:59:00,
2013-10-22 21:00:00,55.4,48.3,30.10,North,350,0.0,0.0,77,0.00,,CLR,0.00,VWS V14.01,2013-10-23 02:00:00,
2013-10-22 21:04:00,54.8,49.1,30.10,North,350,0.0,0.0,81,0.00,,CLR,0.00,VWS V14.01,2013-10-23 02:04:00,
2013-10-22 21:09:00,54.6,48.6,30.10,North,350,0.0,0.0,80,0.00,,CLR,0.00,VWS V14.01,2013-10-23 02:09:00,
2013-10-22 21:10:00,55.1,48.4,30.10,North,350,0.0,0.0,78,0.00,,CLR,0.00,VWS V14.01,2013-10-23 02:10:00,
2013-10-22 21:14:00,54.3,48.6,30.10,North,350,0.0,0.0,81,0.00,,CLR,0.00,VWS V14.01,2013-10-23 02:14:00,
2013-10-22 21:19:00,54.2,48.2,30.10,North,350,0.0,0.0,80,0.00,,CLR,0.00,VWS V14.01,2013-10-23 02:19:00,
2013-10-22 21:20:00,54.8,48.8,30.10,North,350,0.0,0.0,80,0.00,,CLR,0.00,VWS V14.01,2013-10-23 02:20:00,
2013-10-22 21:24:00,53.9,48.2,30.10,North,350,0.0,0.0,81,0.00,,CLR,0.00,VWS V14.01,2013-10-23 02:24:00,
2013-10-22 21:29:00,53.7,48.0,30.10,North,350,0.0,0.0,81,0.00,,CLR,0.00,VWS V14.01,2013-10-23 02:29:00,
2013-10-22 21:30:00,54.3,48.6,30.10,North,350,0.0,0.0,81,0.00,,CLR,0.00,VWS V14.01,2013-10-23 02:30:00,
2013-10-22 21:34:00,53.7,48.3,30.11,North,350,0.0,0.0,82,0.00,,CLR,0.00,VWS V14.01,2013-10-23 02:34:00,
2013-10-22 21:39:00,53.6,48.6,30.11,North,350,0.0,0.0,83,0.00,,CLR,0.00,VWS V14.01,2013-10-23 02:39:00,
2013-10-22 21:40:00,53.9,48.2,30.10,North,350,0.0,0.0,81,0.00,,CLR,0.00,VWS V14.01,2013-10-23 02:40:00,
2013-10-22 21:44:00,53.6,48.9,30.11,North,350,0.0,0.0,84,0.00,,CLR,0.00,VWS V14.01,2013-10-23 02:44:00,
2013-10-22 21:49:00,53.6,48.9,30.11,North,350,0.0,0.0,84,0.00,,CLR,0.00,VWS V14.01,2013-10-23 02:49:00,
2013-10-22 21:50:00,53.6,48.6,30.11,North,350,0.0,0.0,83,0.00,,CLR,0.00,VWS V14.01,2013-10-23 02:50:00,
2013-10-22 21:54:00,53.4,49.0,30.11,North,350,0.0,0.0,85,0.00,,CLR,0.00,VWS V14.01,2013-10-23 02:54:00,
2013-10-22 21:59:00,53.4,49.0,30.11,North,350,0.0,0.0,85,0.00,,CLR,0.00,VWS V14.01,2013-10-23 02:59:00,
2013-10-22 22:00:00,53.6,48.9,30.11,North,350,0.0,0.0,84,0.00,,CLR,0.00,VWS V14.01,2013-10-23 03:00:00,
2013-10-22 22:04:00,53.4,48.7,30.11,North,350,0.0,0.0,84,0.00,,CLR,0.00,VWS V14.01,2013-10-23 03:04:00,
2013-10-22 22:09:00,53.3,48.3,30.11,North,350,0.0,0.0,83,0.00,,CLR,0.00,VWS V14.01,2013-10-23 03:09:00,
2013-10-22 22:10:00,53.4,49.0,30.11,North,350,0.0,0.0,85,0.00,,CLR,0.00,VWS V14.01,2013-10-23 03:10:00,
2013-10-22 22:14:00,53.1,48.1,30.11,North,350,0.0,0.0,83,0.00,,CLR,0.00,VWS V14.01,2013-10-23 03:14:00,
2013-10-22 22:19:00,53.0,48.0,30.12,North,350,0.0,0.0,83,0.00,,CLR,0.00,VWS V14.01,2013-10-23 03:19:00,
2013-10-22 22:20:00,53.4,48.7,30.11,North,350,0.0,0.0,84,0.00,,CLR,0.00,VWS V14.01,2013-10-23 03:20:00,
2013-10-22 22:24:00,53.0,48.0,30.12,North,350,0.0,0.0,83,0.00,,CLR,0.00,VWS V14.01,2013-10-23 03:24:00,
2013-10-22 22:29:00,53.0,48.0,30.12,North,350,0.0,0.0,83,0.00,,CLR,0.00,VWS V14.01,2013-10-23 03:29:00,
2013-10-22 22:30:00,53.1,48.1,30.12,North,350,0.0,0.0,83,0.00,,CLR,0.00,VWS V14.01,2013-10-23 03:30:00,
2013-10-22 22:34:00,52.8,48.1,30.12,North,350,0.0,0.0,84,0.00,,CLR,0.00,VWS V14.01,2013-10-23 03:34:00,
2013-10-22 22:39:00,52.7,47.7,30.12,North,350,0.0,0.0,83,0.00,,CLR,0.00,VWS V14.01,2013-10-23 03:39:00,
2013-10-22 22:40:00,53.0,48.0,30.12,North,350,0.0,0.0,83,0.00,,CLR,0.00,VWS V14.01,2013-10-23 03:40:00,
2013-10-22 22:44:00,52.7,47.7,30.12,North,350,0.0,0.0,83,0.00,,CLR,0.00,VWS V14.01,2013-10-23 03:44:00,
2013-10-22 22:49:00,52.6,47.6,30.12,North,350,0.0,0.0,83,0.00,,CLR,0.00,VWS V14.01,2013-10-23 03:49:00,
2013-10-22 22:50:00,52.8,48.1,30.12,North,350,0.0,0.0,84,0.00,,CLR,0.00,VWS V14.01,2013-10-23 03:50:00,
2013-10-22 22:54:00,52.6,47.9,30.12,North,350,0.0,0.0,84,0.00,,CLR,0.00,VWS V14.01,2013-10-23 03:54:00,
2013-10-22 22:59:00,52.4,47.7,30.12,North,350,0.0,0.0,84,0.00,,CLR,0.00,VWS V14.01,2013-10-23 03:59:00,
2013-10-22 23:00:00,52.6,47.6,30.12,North,350,0.0,0.0,83,0.00,,CLR,0.00,VWS V14.01,2013-10-23 04:00:00,
2013-10-22 23:01:00,52.4,47.7,30.12,North,350,0.0,0.0,84,0.00,,CLR,0.00,VWS V14.01,2013-10-23 04:01:00,
2013-10-22 23:06:00,52.4,48.0,30.12,North,350,0.0,0.0,85,0.00,,CLR,0.00,VWS V14.01,2013-10-23 04:06:00,
2013-10-22 23:10:00,52.6,47.9,30.12,North,350,0.0,0.0,84,0.00,,CLR,0.00,VWS V14.01,2013-10-23 04:10:00,
2013-10-22 23:11:00,52.3,47.9,30.12,North,350,0.0,0.0,85,0.00,,CLR,0.00,VWS V14.01,2013-10-23 04:11:00,
2013-10-22 23:16:00,52.1,47.7,30.12,North,350,0.0,0.0,85,0.00,,CLR,0.00,VWS V14.01,2013-10-23 04:16:00,
2013-10-22 23:20:00,52.4,48.0,30.12,North,350,0.0,0.0,85,0.00,,CLR,0.00,VWS V14.01,2013-10-23 04:20:00,
2013-10-22 23:21:00,52.0,47.6,30.12,North,350,0.0,0.0,85,0.00,,CLR,0.00,VWS V14.01,2013-10-23 04:21:00,
2013-10-22 23:26:00,52.0,48.0,30.12,North,350,0.0,0.0,86,0.00,,CLR,0.00,VWS V14.01,2013-10-23 04:26:00,
2013-10-22 23:30:00,52.1,47.7,30.12,North,350,0.0,0.0,85,0.00,,CLR,0.00,VWS V14.01,2013-10-23 04:30:00,
2013-10-22 23:31:00,52.0,48.3,30.12,North,350,0.0,0.0,87,0.00,,CLR,0.00,VWS V14.01,2013-10-23 04:31:00,
2013-10-22 23:36:00,51.8,48.4,30.12,North,350,0.0,0.0,88,0.00,,CLR,0.00,VWS V14.01,2013-10-23 04:36:00,
2013-10-22 23:40:00,52.0,48.0,30.12,North,350,0.0,0.0,86,0.00,,CLR,0.00,VWS V14.01,2013-10-23 04:40:00,
2013-10-22 23:41:00,51.8,48.4,30.12,North,350,0.0,0.0,88,0.00,,CLR,0.00,VWS V14.01,2013-10-23 04:41:00,
2013-10-22 23:46:00,51.7,48.3,30.12,North,350,0.0,0.0,88,0.00,,CLR,0.00,VWS V14.01,2013-10-23 04:46:00,
2013-10-22 23:50:00,51.8,48.4,30.12,North,350,0.0,0.0,88,0.00,,CLR,0.00,VWS V14.01,2013-10-23 04:50:00,
2013-10-22 23:51:00,51.5,48.1,30.12,North,350,0.0,0.0,88,0.00,,CLR,0.00,VWS V14.01,2013-10-23 04:51:00,
2013-10-22 23:56:00,51.4,48.0,30.12,North,350,0.0,0.0,88,0.00,,CLR,0.00,VWS V14.01,2013-10-23 04:56:00,